Alice, TX

11:38 PM CST on November 18, 2017 (GMT -0600)
Alice International

Weather History for KALI - April, 2014

Change the Weather History Date:

Friday, April 18, 2014

  Actual Average Record
Temperature  
Mean Temperature 72 °F -  
Max Temperature 82 °F 82 °F 93 °F (2006)
Min Temperature 60 °F 61 °F 50 °F (1999)
Cooling Degree Days 6    
Growing Degree Days 22 (Base 50)    
Moisture  
Dew Point 60 °F    
Average Humidity 78    
Maximum Humidity 97    
Minimum Humidity 47    
Precipitation  
Precipitation 0.02 in - - ()
Sea Level Pressure  
Sea Level Pressure 30.13 in    
Wind  
Wind Speed 8 mph (NE)    
Max Wind Speed 17 mph    
Max Gust Speed 17 mph    
Visibility 9 miles    
Events      
Averages and records for this station are not official NWS values.
T = Trace of Precipitation, MM = Missing Value Source: NWS Daily Summary

Daily Weather History Graph

Daily Weather History Graph

Search for Another Location

Airport or City:

Trip Planner

Search our weather history database for the weather conditions in past years. The results will help you decide how hot, cold, wet, or windy it might be!

Date:

Astronomy

Apr. 18, 2014 Rise Set
Actual Time 7:04 AM CDT 7:58 PM CDT
Civil Twilight 6:40 AM CDT 8:22 PM CDT
Nautical Twilight 6:11 AM CDT 8:51 PM CDT
Astronomical Twilight 5:42 AM CDT 9:20 PM CDT
Moon 11:33 PM CDT (4/18) 9:38 AM CDT (4/18)
Length of Visible Light 13h 42m
Length of Day
12h 54m
Waning Gibbous, 87% of the Moon is Illuminated
Apr 18
Waning Gibbous
Apr 22
Last Quarter
Apr 29
New
May 6
First Quarter
May 14
Full

Hourly Weather History & Observations

Time (CDT) Temp. Heat Index Dew Point Humidity Pressure Visibility Wind Dir Wind Speed Gust Speed Precip Events Conditions
12:48 AM 64.4 °F - 62.6 °F 94% 30.13 in 9.0 mi ENE 6.9 mph - 0.02 in   Overcast
12:53 AM 64.0 °F - 63.0 °F 96% 30.13 in 9.0 mi ENE 6.9 mph - 0.02 in   Overcast
1:53 AM 64.0 °F - 63.0 °F 96% 30.12 in 7.0 mi NE 6.9 mph - N/A   Overcast
2:00 AM 64.0 °F - 63.0 °F 96% 30.12 in 7.0 mi NE 5.8 mph - N/A   Overcast
2:53 AM 64.0 °F - 63.0 °F 96% 30.11 in 7.0 mi NNE 6.9 mph - N/A   Overcast
3:53 AM 64.0 °F - 62.1 °F 93% 30.10 in 7.0 mi NNE 8.1 mph - N/A   Overcast
4:46 AM 64.0 °F - 62.1 °F 93% 30.10 in 7.0 mi NNE 6.9 mph - N/A   Overcast
4:53 AM 64.0 °F - 62.1 °F 93% 30.10 in 7.0 mi NE 6.9 mph - N/A   Overcast
5:39 AM 64.0 °F - 62.1 °F 93% 30.11 in 7.0 mi NNE 8.1 mph - N/A   Overcast
5:53 AM 63.0 °F - 62.1 °F 97% 30.11 in 7.0 mi NNE 9.2 mph - N/A   Overcast
6:29 AM 63.0 °F - 62.1 °F 97% 30.12 in 7.0 mi NNE 6.9 mph - N/A   Overcast
6:53 AM 63.0 °F - 62.1 °F 97% 30.13 in 8.0 mi NNE 8.1 mph - N/A   Overcast
7:25 AM 63.0 °F - 61.0 °F 93% 30.14 in 7.0 mi NNE 10.4 mph - N/A   Overcast
7:53 AM 63.0 °F - 61.0 °F 93% 30.15 in 7.0 mi NNE 9.2 mph - N/A   Overcast
8:11 AM 63.0 °F - 61.0 °F 93% 30.16 in 8.0 mi NNE 9.2 mph - N/A   Overcast
8:51 AM 64.4 °F - 60.8 °F 88% 30.16 in 7.0 mi NNE 9.2 mph - N/A   Overcast
8:53 AM 64.0 °F - 61.0 °F 90% 30.16 in 7.0 mi NNE 9.2 mph - N/A   Overcast
9:53 AM 66.0 °F - 62.1 °F 87% 30.16 in 10.0 mi ENE 6.9 mph - N/A   Overcast
10:23 AM 68.0 °F - 62.1 °F 81% 30.17 in 10.0 mi NE 8.1 mph - N/A   Overcast
10:30 AM 69.1 °F - 62.1 °F 78% 30.17 in 10.0 mi NE 9.2 mph - N/A   Overcast
10:53 AM 70.0 °F - 62.1 °F 76% 30.18 in 10.0 mi NNE 9.2 mph - N/A   Overcast
11:21 AM 73.0 °F - 62.1 °F 68% 30.18 in 10.0 mi ENE 8.1 mph - N/A   Overcast
11:53 AM 75.0 °F - 62.1 °F 64% 30.17 in 10.0 mi ENE 10.4 mph 17.3 mph N/A   Mostly Cloudy
12:27 PM 75.0 °F - 62.1 °F 64% 30.17 in 10.0 mi NE 9.2 mph - N/A   Mostly Cloudy
12:53 PM 77.0 °F - 62.1 °F 60% 30.15 in 10.0 mi Variable 6.9 mph - N/A   Mostly Cloudy
1:53 PM 79.0 °F - 61.0 °F 54% 30.14 in 10.0 mi Variable 4.6 mph - N/A   Scattered Clouds
2:53 PM 80.1 °F 80.7 °F 59.0 °F 48% 30.10 in 10.0 mi East 6.9 mph - N/A   Scattered Clouds
3:53 PM 80.6 °F 81.1 °F 59.0 °F 48% 30.09 in 10.0 mi NE 11.5 mph - N/A   Overcast
4:53 PM 80.1 °F 80.6 °F 57.9 °F 47% 30.06 in 10.0 mi ESE 5.8 mph - N/A   Overcast
5:53 PM 77.0 °F - 57.9 °F 52% 30.07 in 10.0 mi SE 17.3 mph - N/A   Overcast
6:53 PM 75.2 °F - 55.4 °F 50% 30.07 in 10.0 mi SE 10.4 mph - N/A   Mostly Cloudy
7:53 PM 72.0 °F - 55.9 °F 57% 30.08 in 10.0 mi SE 12.7 mph - N/A   Clear
8:53 PM 68.0 °F - 54.0 °F 61% 30.10 in 10.0 mi SE 8.1 mph - N/A   Clear
9:53 PM 64.4 °F - 55.4 °F 73% 30.12 in 10.0 mi South 4.6 mph - N/A   Clear
10:53 PM 63.0 °F - 55.0 °F 75% 30.13 in 10.0 mi SSW 4.6 mph - N/A   Clear
11:53 PM 60.1 °F - 55.0 °F 83% 30.13 in 10.0 mi Calm Calm - N/A   Clear